TimeMDT,TemperatureF,Dew PointF,Humidity,Sea Level PressureIn,VisibilityMPH,Wind Direction,Wind SpeedMPH,Gust SpeedMPH,PrecipitationIn,Events,Conditions,WindDirDegrees,DateUTC
12:05 AM,51.8,48.2,88,30.42,7.0,NNE,5.8,-,N/A,,Overcast,20,2012-09-13 06:05:00
12:13 AM,51.8,48.2,88,30.41,6.0,NNE,8.1,-,N/A,,Overcast,20,2012-09-13 06:13:00
12:53 AM,51.1,48.9,92,30.37,8.0,NNE,4.6,-,N/A,,Overcast,30,2012-09-13 06:53:00
1:07 AM,51.8,48.2,88,30.41,6.0,Calm,Calm,-,N/A,,Overcast,0,2012-09-13 07:07:00
1:26 AM,51.8,48.2,88,30.41,6.0,Calm,Calm,-,N/A,,Overcast,0,2012-09-13 07:26:00
1:44 AM,51.8,48.2,88,30.41,6.0,ESE,3.5,-,N/A,,Overcast,110,2012-09-13 07:44:00
1:53 AM,51.1,48.9,92,30.38,6.0,ESE,3.5,-,N/A,,Overcast,120,2012-09-13 07:53:00
2:53 AM,48.9,48.0,97,30.38,7.0,Calm,Calm,-,N/A,,Mostly Cloudy,0,2012-09-13 08:53:00
3:53 AM,51.1,48.0,89,30.38,8.0,Calm,Calm,-,N/A,,Overcast,0,2012-09-13 09:53:00
4:03 AM,50.0,48.2,94,30.42,7.0,NW,3.5,-,N/A,,Overcast,310,2012-09-13 10:03:00
4:53 AM,51.1,48.0,89,30.38,7.0,Calm,Calm,-,N/A,,Overcast,0,2012-09-13 10:53:00
5:00 AM,51.8,48.2,88,30.43,7.0,Calm,Calm,-,N/A,,Overcast,0,2012-09-13 11:00:00
5:21 AM,51.8,48.2,88,30.43,7.0,Calm,Calm,-,N/A,,Overcast,0,2012-09-13 11:21:00
5:30 AM,51.8,48.2,88,30.43,7.0,SSW,3.5,-,N/A,,Overcast,210,2012-09-13 11:30:00
5:53 AM,51.1,48.0,89,30.40,8.0,Calm,Calm,-,N/A,,Overcast,0,2012-09-13 11:53:00
6:53 AM,51.1,48.0,89,30.42,9.0,Calm,Calm,-,N/A,,Mostly Cloudy,0,2012-09-13 12:53:00
7:19 AM,51.8,48.2,88,30.47,9.0,Calm,Calm,-,N/A,,Mostly Cloudy,0,2012-09-13 13:19:00
7:53 AM,52.0,48.0,86,30.43,10.0,South,4.6,-,N/A,,Overcast,180,2012-09-13 13:53:00
8:23 AM,53.6,48.2,82,30.47,10.0,SSW,5.8,-,N/A,,Scattered Clouds,200,2012-09-13 14:23:00
8:53 AM,54.0,46.0,75,30.44,10.0,Calm,Calm,-,N/A,,Partly Cloudy,0,2012-09-13 14:53:00
9:10 AM,55.4,46.4,72,30.50,10.0,Calm,Calm,-,N/A,,Mostly Cloudy,0,2012-09-13 15:10:00
9:53 AM,55.9,46.9,72,30.45,10.0,Calm,Calm,-,N/A,,Overcast,0,2012-09-13 15:53:00
10:53 AM,57.9,46.9,67,30.45,10.0,SW,3.5,-,N/A,,Overcast,230,2012-09-13 16:53:00
11:41 AM,59.0,44.6,59,30.50,10.0,West,4.6,-,N/A,,Mostly Cloudy,260,2012-09-13 17:41:00
11:53 AM,61.0,46.0,58,30.43,10.0,Variable,4.6,-,N/A,,Partly Cloudy,0,2012-09-13 17:53:00
12:53 PM,62.1,46.0,56,30.40,10.0,Variable,3.5,-,N/A,,Partly Cloudy,0,2012-09-13 18:53:00
1:53 PM,64.0,44.1,48,30.37,10.0,SW,3.5,-,N/A,,Clear,230,2012-09-13 19:53:00
2:53 PM,66.9,43.0,42,30.36,10.0,Calm,Calm,-,N/A,,Clear,0,2012-09-13 20:53:00
3:53 PM,68.0,41.0,37,30.34,10.0,WSW,6.9,-,N/A,,Clear,250,2012-09-13 21:53:00
4:53 PM,68.0,37.9,33,30.33,10.0,WNW,3.5,-,N/A,,Clear,290,2012-09-13 22:53:00
5:53 PM,68.0,37.9,33,30.33,10.0,Calm,Calm,-,N/A,,Clear,0,2012-09-13 23:53:00
6:53 PM,64.9,39.9,40,30.34,10.0,Calm,Calm,-,N/A,,Clear,0,2012-09-14 00:53:00
7:53 PM,62.1,41.0,46,30.36,10.0,Calm,Calm,-,N/A,,Clear,0,2012-09-14 01:53:00
8:53 PM,61.0,41.0,48,30.37,10.0,Calm,Calm,-,N/A,,Clear,0,2012-09-14 02:53:00
9:53 PM,55.9,42.1,60,30.38,10.0,South,5.8,-,N/A,,Clear,170,2012-09-14 03:53:00
10:53 PM,55.0,41.0,59,30.38,10.0,SSW,9.2,-,N/A,,Clear,200,2012-09-14 04:53:00
11:53 PM,52.0,43.0,71,30.38,10.0,SSW,10.4,-,N/A,,Clear,210,2012-09-14 05:53:00